sat.trackr.live / text

‹ back to catalog

STARLINK-36948

NORAD 68209 · 2026-053C

PAYLOAD ACTIVE UNKNOWN

§ Identity

Operator
Country
US
Launch date
2026-03-17
Launch site
AFWTR
Launch vehicle
Mass (kg)
RCS (m²)

Purposes: comms

External: N2YO · Heavens-Above · Gunter

§ Orbital elements

Epoch: 2026-05-25T02:12:15.516864Z

Period
93.91 min
Inclination
97.2874°
Eccentricity
0.0002053
Mean motion
15.33427905 rev/d
Perigee alt
464.2 km
Apogee alt
467.0 km
Semi-major
6,843.7 km
B*
4.2077e-4
RAAN
20.4922°
Arg perigee
81.0115°
Mean anomaly
279.1360°
Rev number
1,190

§ Raw data

STARLINK-369481 68209U 26053C   26145.09184626  .00013526  00000+0  42077-3 0  99942 68209  97.2874  20.4922 0002053  81.0115 279.1360 15.33427905 11907

JSON: /api/v1/satellites/68209 · /tle

For live sub-satellite position, see the globe view (requires WebGL).

§ Visibility from observer

Set your observer location to see the next 7 days of passes ≥ 10°. The values pass through the URL so the page stays shareable.

No JS? Fill the form by hand. The geolocation button needs JavaScript.